STARLINK-36716

Last updated on Tue Mar 10 2026 00:02:05 GMT+0000 (Coordinated Universal Time)

1 67699U 26025G 26068.31182582 .00179516 00000+0 11778-2 0 9998 2 67699 97.2837 179.9196 0001180 57.1533 302.9846 15.75219544 5898
UTC large
Height (km)
Speed (km/s)
/
Latitude / Longitude
Inclination (degrees)
Orbital Period (minutes)
Azimuth
Elevation
Range (km)
Doppler Factor

Next 0 passes for location: London (51.5072 / 0.1276)

Sorry there are no passes over London.